Location: S�tio Afonso Gruber
(26.1760°S, 49.5250°W)
Time: 09:27:14
(UTC+00:00)

Cosmos 1844 Rocket - Pass Details

Date: 07 October 2020
Orbit: 823 x 846 km, 71.0° (Epoch: 22 October)

Event Time Altitude Azimuth Distance (km) Brightness Sun altitude
Exits shadow 08:16:54 10° 287° (WNW) 2,482 4.5 -8.3°
Reaches altitude 10° 08:16:58 10° 286° (WNW) 2,465 4.4 -8.3°
Maximum altitude 08:20:49 19° 243° (WSW) 1,936 4.1 -7.5°
Drops below altitude 10° 08:24:41 10° 200° (SSW) 2,474 5.0 -6.6°
Sets 08:27:56 0° 181° (S) 3,412 6.0 -5.9°
